SCP
0 0 0 0 0 0 0 0 0 0 0 0 0 0 0 0 0 0 0 0 0 0 0 0 0 0 0 1 1 0 0 0 0 0 0 0 0 0 0 0 0 0 0
0 0 0 0 0 0 0 0 0 0 0 0 0 0 0 0 0 0 0 0 0 0 0 0 0 0 0 0 1 0 0 0 0 0 0 0 0 0 0 0 0 0 0
0 0 0 0 0 0 0 0 0 0 0 0 0 0 0 0 0 0 0 0 0 0 0 0 0 0 0 0 1 1 0 0 0 0 0 0 0 0 0 0 0 0 0
0 0 0 0 0 0 0 0 0 0 0 0 0 0 0 0 0 0 0 0 0 0 0 0 0 0 0 0 0 0 0 0 0 0 0 0 0 0 0 0 0 0 0
0 0 0 0 0 0 0 0 0 0 0 0 0 0 0 0 0 0 0 0 0 0 0 0 0 0 0 0 0 0 0 0 0 0 0 0 0 0 0 0 0 0 0
0 0 0 0 0 0 0 0 0 0 0 0 0 0 0 0 0 0 0 0 0 0 0 0 0 0 0 0 0 0 0 0 0 0 0 0 0 0 0 0 0 0 0
0 0 0 0 0 0 0 0 0 0 0 0 0 0 0 0 0 0 0 0 0 0 0 0 0 0 0 0 0 0 0 0 0 0 0 0 0 0 0 0 0 0 0
0 0 0 0 0 0 0 0 0 0 0 0 0 0 0 0 0 0 0 0 0 0 0 0 0 0 0 0 0 0 0 0 0 0 0 0 0 0 0 0 0 0 0
0 0 0 0 0 0 0 0 0 0 0 0 0 0 0 0 0 0 0 0 0 0 0 0 0 0 0 0 0 0 0 0 0 0 0 0 0 0 0 0 0 0 0
0 0 0 0 0 0 0 0 0 0 0 0 0 0 0 0 0 0 0 0 0 0 0 0 0 0 0 0 0 0 0 0 0 0 0 0 0 0 0 0 0 0 0
0 0 0 0 0 0 0 0 0 0 0 0 0 0 0 0 0 0 0 0 0 0 0 0 0 0 0 0 0 0 0 0 0 0 0 0 0 0 0 0 0 0 0
0 0 0 0 0 0 0 0 0 0 0 0 0 0 0 0 0 0 0 0 0 0 0 0 0 0 0 0 0 0 0 0 0 0 0 0 0 0 0 0 0 0 0
0 0 0 0 0 0 0 0 0 0 0 0 0 0 0 0 0 0 0 0 0 0 0 0 0 0 0 0 0 0 0 0 0 0 0 0 0 0 0 0 0 0 0
0 0 0 0 0 0 0 0 0 0 0 0 0 0 0 0 0 0 0 0 0 0 0 0 0 0 0 0 0 0 0 0 0 0 0 0 0 0 0 0 0 0 0
0 0 0 0 0 0 0 0 0 0 0 0 0 0 0 0 0 0 0 0 0 0 0 0 0 0 0 0 0 0 0 0 0 0 0 0 0 0 0 0 0 0 0
0 0 0 0 0 0 0 0 0 0 0 0 0 0 0 0 0 0 0 0 0 0 0 0 0 0 0 0 0 0 0 0 0 0 0 0 0 0 0 0 0 0 0
0 0 0 0 0 0 0 0 0 0 0 0 0 0 0 0 0 0 0 0 0 0 0 0 0 0 0 0 0 0 0 0 0 0 0 0 0 0 0 0 0 0 0
0 0 0 0 0 0 0 0 0 0 0 0 0 0 0 0 0 0 0 0 0 0 0 0 0 0 0 0 0 0 0 0 0 0 0 0 0 0 0 0 0 0 0
0 0 0 0 0 0 0 0 0 0 0 0 0 0 0 0 0 0 0 0 0 0 0 0 0 0 0 0 0 0 0 0 0 0 0 0 0 0 0 0 0 0 0
0 0 0 0 0 0 0 0 0 0 0 0 0 0 0 0 0 0 0 0 0 0 0 0 0 0 0 0 0 0 0 0 0 0 0 0 0 0 0 0 0 0 0
0 0 0 0 0 0 0 0 0 0 0 0 0 0 0 0 0 0 0 0 0 0 0 0 0 0 0 0 0 0 0 0 0 0 0 0 0 0 0 0 0 0 0
0 0 0 0 0 0 0 0 0 0 0 0 0 0 0 0 0 0 0 0 0 0 0 0 0 0 0 0 0 0 0 0 0 0 0 0 0 0 0 0 0 0 0
0 0 0 0 0 0 0 0 0 0 0 0 0 0 0 0 0 0 0 0 0 0 0 0 0 0 0 0 0 0 0 0 0 0 0 0 0 0 0 0 0 0 0
0 0 0 0 0 0 0 0 0 0 0 0 0 0 0 0 0 0 0 0 0 0 0 0 0 0 0 0 0 0 0 0 0 0 0 0 0 0 0 0 0 0 0
0 0 0 0 0 0 0 0 0 0 0 0 0 0 0 0 0 0 0 0 0 0 0 0 0 0 0 0 0 0 0 0 0 0 0 0 0 0 0 0 0 0 0
0 0 0 0 0 0 0 0 0 0 0 0 0 0 0 0 0 0 0 0 0 0 0 0 0 0 0 0 0 0 0 0 0 0 0 0 0 0 0 0 0 0 0
Wind_Speed
2 2 2 2 2 2 1 2 2 2 3 3 3 4 4 4 3 3 3 3 3 4 4 4 4 5 4 4 4 4 4 5 7 7 7 7 9 9 9 9 9 9 8
2 2 2 2 2 2 2 2 2 2 2 2 3 3 3 4 4 3 4 4 4 4 4 4 5 4 5 5 4 5 5 5 7 9 8 7 9 9 10 10 9 8 9
1 1 1 1 2 2 2 2 2 2 2 2 3 3 3 3 3 3 4 4 4 4 4 5 5 5 6 5 6 5 5 6 6 7 8 7 7 8 10 9 10 9 9
1 1 1 1 2 2 2 2 2 2 2 2 2 2 3 3 3 3 4 4 4 4 4 5 5 5 6 7 6 6 6 7 6 6 7 7 7 8 8 8 9 8 9
1 1 2 2 2 2 2 2 2 2 2 2 2 2 3 3 3 4 3 4 4 4 4 5 5 6 7 7 6 7 7 6 6 6 7 7 7 8 8 8 10 10 10
1 2 2 2 2 2 2 2 2 2 2 2 2 3 3 3 5 5 4 4 4 4 4 5 5 5 6 8 9 9 9 7 8 7 7 8 9 9 9 9 10 10 9
2 2 2 2 2 2 2 2 2 2 2 2 2 3 3 3 5 5 5 4 4 4 4 5 4 5 6 6 8 9 8 9 10 9 9 9 10 10 10 11 10 10 11
2 2 2 2 2 2 2 2 2 2 2 2 2 3 3 3 5 5 5 4 3 4 4 5 5 6 6 8 8 8 8 8 8 7 8 9 9 10 9 10 11 11 11
2 2 2 2 2 2 2 3 2 2 2 2 2 2 3 4 5 6 6 3 3 4 4 4 5 6 9 11 8 8 8 8 8 10 12 12 14 13 11 7 8 8 10
3 3 2 2 2 2 3 2 2 2 2 2 2 2 3 4 5 6 6 3 3 4 4 4 5 7 10 11 8 7 8 9 9 9 9 10 9 9 10 7 7 8 8
2 2 2 2 2 2 1 1 1 1 1 1 2 2 3 4 5 6 6 3 3 4 4 4 4 8 10 11 9 7 9 10 8 8 7 7 7 6 6 6 6 6 8
1 1 1 2 1 1 1 1 1 1 1 2 2 3 2 3 4 5 6 6 5 4 4 4 5 9 10 11 8 9 12 10 6 6 6 6 6 7 7 8 8 8 8
1 1 1 1 1 1 1 1 1 1 1 1 2 2 3 2 3 5 6 6 7 4 4 6 8 9 9 7 9 11 8 6 6 6 6 7 7 8 8 8 8 8 9
2 2 1 1 1 1 1 1 1 1 2 2 2 3 3 3 3 3 3 3 4 4 4 5 7 8 7 7 6 6 5 5 6 6 7 7 7 7 7 7 8 8 8
3 2 2 2 2 1 1 2 2 2 2 3 3 3 3 4 4 5 4 3 3 3 3 3 3 4 4 4 4 4 5 5 5 6 6 7 7 7 7 7 7 7 7
3 3 2 2 2 2 2 2 3 3 3 4 4 4 4 5 7 6 6 6 6 5 3 3 4 4 4 5 5 5 5 5 5 6 6 6 7 8 8 7 7 7 8
5 4 3 2 2 2 2 2 2 2 3 4 5 6 6 6 7 7 6 6 6 4 2 3 4 4 4 5 5 5 5 6 5 6 6 6 7 7 7 8 8 8 8
5 4 4 3 3 3 3 3 3 3 3 3 4 6 7 7 7 6 6 4 3 2 3 4 4 4 4 5 5 5 5 6 5 5 6 6 6 7 7 7 7 9 9
5 4 4 3 3 3 3 3 3 3 3 3 3 3 4 6 6 5 3 2 3 3 3 4 4 4 4 5 5 5 6 6 6 6 6 6 6 6 7 7 8 9 9
5 5 4 4 3 3 3 3 3 3 3 4 4 3 2 2 3 3 2 3 3 4 4 4 4 5 5 5 5 5 5 5 6 5 6 6 6 6 7 8 8 8 8
4 4 5 4 4 4 4 4 4 4 4 4 4 4 4 3 4 4 4 4 4 4 4 5 4 5 4 4 5 5 6 6 5 5 6 6 6 6 6 7 7 7 8
4 4 4 5 4 4 4 4 4 4 5 5 4 4 5 4 4 4 4 4 4 4 4 5 5 4 4 5 5 5 6 6 6 5 6 6 6 6 7 7 7 7 7
5 5 5 4 4 5 4 4 4 4 5 5 4 4 4 4 4 5 5 5 4 4 4 4 5 5 5 5 5 6 6 6 6 6 6 6 6 6 6 7 8 8 8
5 5 5 5 4 4 5 5 5 5 5 5 4 4 4 5 5 6 5 5 5 5 5 5 5 7 8 6 5 6 6 7 6 5 7 6 7 6 6 7 7 8 8
5 5 5 5 5 5 5 5 5 5 5 5 5 5 5 5 5 5 5 5 5 5 6 6 5 6 8 9 8 7 9 10 8 5 5 5 7 7 7 7 7 8 7
5 5 5 5 5 5 5 5 5 5 5 5 5 5 5 5 5 5 5 5 5 5 6 6 7 8 9 8 9 10 10 10 9 8 5 5 6 6 6 6 8 7 8
Wind_Direction
1 357 357 359 355 347 346 341 337 343 346 350 353 351 344 342 348 344 341 340 338 335 332 327 326 325 317 318 311 305 304 298 288 298 304 311 311 312 313 313 311 310 308
349 350 346 351 346 341 339 336 342 351 348 347 352 354 345 347 348 342 341 339 335 336 335 333 332 331 330 325 318 314 310 310 301 298 303 309 308 312 313 312 312 310 307
339 337 334 339 338 335 334 335 338 337 335 346 352 351 343 341 342 343 337 335 338 338 336 334 334 333 331 328 323 320 318 315 308 299 300 305 308 314 315 311 311 309 309
303 298 304 312 314 316 317 319 320 315 322 342 343 340 334 331 334 336 337 338 336 336 337 336 334 333 329 326 322 321 319 315 310 305 305 309 312 318 315 317 316 315 312
278 281 291 304 311 314 310 311 311 308 319 330 329 331 331 329 331 332 334 333 331 333 337 337 337 338 336 330 324 325 323 317 314 313 311 311 315 322 321 320 313 315 310
269 282 296 304 306 303 303 305 309 310 320 325 324 329 328 329 336 332 334 332 328 327 329 331 333 336 339 331 327 324 321 315 313 311 310 310 313 317 317 314 313 315 313
264 281 290 291 291 292 295 291 293 298 307 311 317 318 318 330 340 338 343 333 327 325 324 323 329 335 332 330 328 324 322 317 309 305 304 306 308 313 312 309 309 308 303
267 281 288 283 281 288 283 282 288 289 287 293 305 310 318 332 339 340 342 329 321 324 323 323 325 328 332 329 325 324 323 322 319 314 306 306 308 309 305 302 305 302 297
269 275 276 268 271 278 275 279 282 281 284 292 304 312 316 324 333 331 334 324 321 322 323 324 326 324 329 330 326 321 319 318 323 317 311 308 308 313 315 310 307 306 306
264 268 269 261 257 263 268 277 286 280 287 307 309 311 312 317 329 329 331 318 316 319 323 327 330 324 328 331 326 321 318 320 322 320 316 314 313 316 320 312 304 302 305
265 265 268 265 260 263 274 291 294 289 301 301 304 313 313 314 323 327 327 320 313 314 317 321 327 330 328 330 328 320 318 321 319 316 314 315 317 317 316 314 306 296 293
241 246 260 270 268 259 261 289 287 279 288 297 308 311 311 313 316 323 324 320 316 309 310 315 321 328 329 330 329 328 331 329 319 317 316 319 320 319 317 314 308 299 287
206 231 253 279 278 271 246 248 261 257 270 289 297 302 309 315 318 319 317 319 320 312 313 318 322 327 329 330 333 334 333 327 321 318 317 317 316 313 312 311 310 306 297
210 223 224 232 248 256 255 245 245 246 254 270 282 291 301 307 310 315 315 316 319 319 323 327 326 325 324 327 330 334 332 327 321 315 314 314 315 315 317 319 317 319 312
210 215 220 226 236 239 238 243 243 250 249 261 274 282 291 297 306 314 317 318 324 328 328 317 316 321 323 324 326 327 325 323 321 318 315 316 317 318 320 322 318 318 314
207 212 215 221 227 236 245 270 268 266 286 277 284 290 292 297 315 315 316 321 321 327 323 309 313 316 316 318 318 319 321 322 322 318 315 315 317 319 320 320 320 319 317
210 211 214 215 220 228 237 248 275 285 275 280 286 291 290 302 308 310 314 319 322 334 312 302 304 307 308 308 309 310 311 314 314 311 312 315 315 316 317 318 320 320 318
213 213 215 218 221 226 232 239 251 267 286 291 293 295 298 303 305 309 318 324 312 315 293 294 296 299 300 300 301 303 304 307 308 308 310 312 313 312 313 315 316 318 317
209 211 212 218 220 224 229 234 239 249 260 277 295 299 304 303 304 308 319 291 282 285 285 286 289 291 292 294 296 297 298 300 303 304 305 308 310 310 310 312 312 315 314
211 213 209 213 216 220 222 227 233 241 251 261 270 282 297 290 283 292 282 275 273 278 282 284 286 286 289 290 293 293 295 296 299 298 303 306 308 306 306 307 310 313 311
207 207 205 211 215 217 219 225 230 235 244 254 261 267 271 269 265 269 268 265 267 272 276 279 281 282 281 282 285 286 288 291 292 296 300 303 304 303 302 303 306 306 307
205 207 207 214 218 219 222 227 230 236 244 253 265 268 263 257 259 262 263 265 265 266 269 271 272 273 273 276 278 281 283 286 289 293 296 298 297 297 299 301 306 308 309
204 206 210 215 219 220 224 228 230 236 244 251 257 260 256 254 257 261 264 267 268 267 267 265 269 271 272 271 271 270 274 279 285 289 292 294 295 295 297 300 303 307 310
205 209 213 216 217 220 225 229 232 237 243 248 251 252 254 256 260 265 268 270 272 270 266 262 261 266 272 277 274 271 272 278 283 280 280 283 288 290 294 297 299 303 304
206 211 215 218 220 224 228 232 236 239 242 244 247 251 254 258 261 265 268 270 273 273 274 271 266 267 269 272 274 276 279 282 281 279 276 274 280 283 288 291 295 302 303
208 213 217 218 221 224 228 233 237 239 243 246 248 251 254 257 261 265 266 266 271 273 274 271 269 272 276 274 275 279 280 280 278 271 264 268 274 279 287 289 295 298 300